DEWET EDER-EDER

Flight info

Callsign DEWET
Flight time 0h 3m
Altitude 1000
Route DCT
Aircraft DR40/L-VGDW/C

Departure

Time 2026-04-23 06:50
Airport Wasserkuppe Airfield (EDER)

Arrival

Time 2026-04-23 06:54
Airport Wasserkuppe Airfield (EDER)
Time Latitude Longitude Altitude Speed Heading
2026-04-23 06:33 50.49788 9.94863 3057 ft 0 kts 161°
2026-04-23 06:36 50.49786 9.94864 3057 ft 4 kts 161°
2026-04-23 06:36 50.49767 9.94858 3058 ft 0 kts 146°
2026-04-23 06:36 50.49761 9.94859 3058 ft 1 kts 208°
2026-04-23 06:37 50.49769 9.94860 3058 ft 1 kts 103°
2026-04-23 06:49 50.49759 9.94974 3048 ft 18 kts 72°
2026-04-23 06:49 50.49899 9.95477 2990 ft 87 kts 66°
2026-04-23 06:49 50.50184 9.96484 3082 ft 114 kts 62°
2026-04-23 06:49 50.50780 9.97083 3165 ft 115 kts 343°
2026-04-23 06:50 50.51323 9.96305 3327 ft 124 kts 277°
2026-04-23 06:50 50.50998 9.94961 3456 ft 126 kts 249°
2026-04-23 06:50 50.50596 9.93745 3665 ft 130 kts 247°
2026-04-23 06:50 50.50227 9.92428 3807 ft 131 kts 251°
2026-04-23 06:51 50.49804 9.91179 3985 ft 134 kts 232°
2026-04-23 06:51 50.48873 9.91011 3816 ft 155 kts 153°
2026-04-23 06:51 50.48049 9.91887 4109 ft 133 kts 135°
2026-04-23 06:51 50.47498 9.93021 4136 ft 128 kts 85°
2026-04-23 06:52 50.47754 9.94388 4046 ft 133 kts 66°
2026-04-23 06:52 50.48022 9.95655 4084 ft 118 kts 63°
2026-04-23 06:52 50.48483 9.96664 3930 ft 112 kts 41°
2026-04-23 06:52 50.49048 9.97441 3858 ft 97 kts 28°
2026-04-23 06:53 50.49591 9.97869 3674 ft 84 kts 12°
2026-04-23 06:53 50.50102 9.97593 3382 ft 88 kts 303°
2026-04-23 06:53 50.50196 9.96598 3086 ft 97 kts 259°
2026-04-23 06:53 50.49968 9.95696 2963 ft 70 kts 245°
2026-04-23 06:54 50.49827 9.95223 3010 ft 33 kts 245°
2026-04-23 06:54 50.49798 9.94941 3041 ft 16 kts 282°
2026-04-23 06:54 50.49793 9.94842 3036 ft 9 kts 219°
2026-04-23 06:54 50.49768 9.94856 3050 ft 0 kts 100°
2026-04-23 07:04 50.49765 9.94882 3049 ft 12 kts 102°
2026-04-23 07:05 50.49788 9.95078 3033 ft 39 kts 65°
2026-04-23 07:05 50.49995 9.95838 3038 ft 97 kts 67°
2026-04-23 07:05 50.50271 9.96768 3442 ft 90 kts 48°
2026-04-23 07:05 50.50830 9.96889 3686 ft 96 kts 344°
2026-04-23 07:06 50.51201 9.96152 3888 ft 117 kts 259°
2026-04-23 07:06 50.50900 9.94826 3863 ft 133 kts 255°
2026-04-23 07:06 50.50537 9.93530 4104 ft 130 kts 251°
2026-04-23 07:06 50.50144 9.92236 4221 ft 133 kts 249°
2026-04-23 07:07 50.49727 9.90915 4245 ft 135 kts 253°
2026-04-23 07:07 50.49352 9.89585 4366 ft 131 kts 253°
2026-04-23 07:07 50.49046 9.88205 4368 ft 136 kts 257°
2026-04-23 07:07 50.48800 9.86766 4373 ft 137 kts 264°
2026-04-23 07:08 50.48617 9.85407 4377 ft 127 kts 265°
2026-04-23 07:08 50.48495 9.83956 3971 ft 139 kts 270°
2026-04-23 07:08 50.48383 9.82520 3966 ft 125 kts 265°
2026-04-23 07:08 50.48268 9.81131 3711 ft 132 kts 269°
2026-04-23 07:09 50.48033 9.79769 3617 ft 129 kts 254°
2026-04-23 07:09 50.47689 9.78421 3288 ft 138 kts 254°
2026-04-23 07:09 50.47284 9.77160 3303 ft 124 kts 256°
2026-04-23 07:09 50.47149 9.75811 3117 ft 127 kts 270°
2026-04-23 07:10 50.46972 9.74440 2986 ft 129 kts 253°
2026-04-23 07:10 50.46549 9.73191 2811 ft 132 kts 247°
2026-04-23 07:10 50.46315 9.71816 2528 ft 133 kts 270°
2026-04-23 07:10 50.46278 9.70421 2481 ft 126 kts 274°
2026-04-23 07:11 50.46304 9.69051 2345 ft 127 kts 275°
2026-04-23 07:11 50.46361 9.67666 2197 ft 127 kts 275°
2026-04-23 07:11 50.46285 9.66290 2108 ft 125 kts 263°
2026-04-23 07:12 50.45872 9.63601 1786 ft 130 kts 251°
2026-04-23 07:12 50.45621 9.62234 1876 ft 127 kts 256°
2026-04-23 07:12 50.45492 9.60884 2017 ft 125 kts 269°
2026-04-23 07:12 50.45584 9.59533 2139 ft 125 kts 284°
2026-04-23 07:13 50.45734 9.58192 2275 ft 125 kts 282°
2026-04-23 07:13 50.45764 9.56841 2427 ft 127 kts 271°
2026-04-23 07:13 50.45708 9.55453 2495 ft 132 kts 265°
2026-04-23 07:13 50.45554 9.54018 2626 ft 127 kts 257°
2026-04-23 07:14 50.45268 9.52700 2622 ft 136 kts 273°
2026-04-23 07:14 50.45394 9.51256 2736 ft 128 kts 282°
2026-04-23 07:14 50.45509 9.49874 2921 ft 126 kts 281°
2026-04-23 07:14 50.45546 9.48502 3101 ft 127 kts 283°
2026-04-23 07:15 50.45932 9.47200 3052 ft 129 kts 306°
2026-04-23 07:15 50.46481 9.46219 3305 ft 119 kts 318°
2026-04-23 07:15 50.46974 9.45117 3371 ft 127 kts 299°
2026-04-23 07:15 50.47188 9.43757 3383 ft 130 kts 296°
2026-04-23 07:16 50.47982 9.43268 2889 ft 149 kts 22°
2026-04-23 07:16 50.48471 9.43931 2945 ft 129 kts 56°
2026-04-23 07:16 50.48560 9.45246 2852 ft 132 kts 97°
2026-04-23 07:16 50.48096 9.46489 2523 ft 142 kts 155°
2026-04-23 07:17 50.47486 9.46015 1977 ft 96 kts 274°
2026-04-23 07:17 50.47595 9.45099 1623 ft 74 kts 276°
2026-04-23 07:17 50.47562 9.44361 1563 ft 52 kts 260°
2026-04-23 07:17 50.47544 9.44050 1559 ft 14 kts 294°
2026-04-23 07:18 50.47559 9.44002 1559 ft 0 kts 259°
2026-04-23 07:25 50.47552 9.43994 1559 ft 9 kts 181°
2026-04-23 07:25 50.47532 9.44127 1557 ft 32 kts 84°
2026-04-23 07:25 50.47595 9.44779 1682 ft 73 kts 79°
2026-04-23 07:25 50.47625 9.45606 2020 ft 80 kts 126°
2026-04-23 07:26 50.47085 9.45839 2299 ft 91 kts 212°
2026-04-23 07:26 50.46771 9.44855 2360 ft 116 kts 257°
2026-04-23 07:26 50.46595 9.43562 2429 ft 127 kts 271°
2026-04-23 07:26 50.46618 9.42192 2654 ft 120 kts 268°
2026-04-23 07:27 50.46502 9.40835 2691 ft 132 kts 266°
2026-04-23 07:27 50.46329 9.39508 2858 ft 135 kts 261°
2026-04-23 07:27 50.46172 9.37981 2709 ft 142 kts 266°
2026-04-23 07:27 50.46023 9.36543 2665 ft 129 kts 263°
2026-04-23 07:28 50.45798 9.35203 2575 ft 128 kts 249°
2026-04-23 07:28 50.45533 9.33888 2501 ft 124 kts 261°
2026-04-23 07:28 50.45376 9.32560 2369 ft 125 kts 263°
2026-04-23 07:28 50.45261 9.31235 2306 ft 122 kts 263°
2026-04-23 07:29 50.45113 9.29853 2274 ft 130 kts 263°
2026-04-23 07:29 50.44905 9.28467 2375 ft 131 kts 258°
2026-04-23 07:29 50.44725 9.27122 2460 ft 121 kts 256°
2026-04-23 07:29 50.44444 9.25845 2364 ft 129 kts 254°
2026-04-23 07:30 50.44147 9.24561 2346 ft 122 kts 254°
2026-04-23 07:30 50.43952 9.23261 2200 ft 122 kts 265°
2026-04-23 07:30 50.43891 9.22020 2064 ft 105 kts 271°
2026-04-23 07:30 50.43831 9.20830 1884 ft 115 kts 267°
2026-04-23 07:31 50.43703 9.19569 1711 ft 118 kts 252°
2026-04-23 07:31 50.43304 9.18637 1654 ft 94 kts 233°
2026-04-23 07:31 50.42886 9.17887 1548 ft 87 kts 201°
2026-04-23 07:31 50.42703 9.18485 1359 ft 89 kts 56°
2026-04-23 07:32 50.43059 9.19119 1213 ft 65 kts 49°
2026-04-23 07:32 50.43260 9.19473 1206 ft 20 kts 49°
2026-04-23 07:32 50.43314 9.19628 1202 ft 13 kts 81°
2026-04-23 07:32 50.43323 9.19677 1210 ft 8 kts 358°
2026-04-23 07:33 50.43341 9.19661 1202 ft 0 kts 317°
2026-04-23 07:47 50.43328 9.19580 1201 ft 26 kts 226°
2026-04-23 07:48 50.43053 9.19123 1272 ft 81 kts 227°
2026-04-23 07:48 50.42847 9.18212 1471 ft 100 kts 271°
2026-04-23 07:48 50.42675 9.16956 1464 ft 128 kts 250°
2026-04-23 07:48 50.42352 9.15635 1518 ft 131 kts 253°
2026-04-23 07:49 50.42134 9.14242 1557 ft 134 kts 261°
2026-04-23 07:49 50.41960 9.12791 1609 ft 136 kts 263°
2026-04-23 07:49 50.41795 9.11292 1570 ft 141 kts 262°
2026-04-23 07:49 50.41618 9.09844 1720 ft 135 kts 261°
2026-04-23 07:50 50.41438 9.08406 1763 ft 137 kts 263°
2026-04-23 07:50 50.41318 9.06894 1689 ft 144 kts 263°
2026-04-23 07:50 50.41179 9.05323 1564 ft 146 kts 261°
2026-04-23 07:50 50.40982 9.03856 1475 ft 130 kts 258°
2026-04-23 07:51 50.40633 9.02597 1384 ft 127 kts 231°
2026-04-23 07:51 50.39998 9.01632 1286 ft 123 kts 223°
2026-04-23 07:51 50.39372 9.00762 1285 ft 117 kts 223°
2026-04-23 07:51 50.38804 8.99829 1142 ft 120 kts 231°
2026-04-23 07:52 50.38379 8.98815 1125 ft 112 kts 270°
2026-04-23 07:52 50.38666 8.97749 1031 ft 97 kts 308°
2026-04-23 07:52 50.39186 8.97313 845 ft 92 kts 356°
2026-04-23 07:52 50.39724 8.97685 701 ft 89 kts 47°
2026-04-23 07:53 50.40143 8.98304 563 ft 71 kts 39°
2026-04-23 07:53 50.40436 8.98676 561 ft 26 kts 36°
2026-04-23 07:53 50.40441 8.98714 557 ft 9 kts 195°
2026-04-23 07:53 50.40400 8.98691 551 ft 0 kts 209°
2026-04-23 08:11 50.40353 8.98609 546 ft 35 kts 219°
2026-04-23 08:11 50.40182 8.98400 539 ft 12 kts 248°
2026-04-23 08:11 50.40277 8.98481 540 ft 46 kts 39°
2026-04-23 08:11 50.40660 8.98931 759 ft 73 kts 33°
2026-04-23 08:12 50.41117 8.99450 1002 ft 97 kts 38°
2026-04-23 08:12 50.41607 8.99249 1067 ft 118 kts 264°
2026-04-23 08:12 50.41029 8.98282 1025 ft 136 kts 211°
2026-04-23 08:12 50.40207 8.97503 986 ft 142 kts 211°
2026-04-23 08:13 50.39545 8.96420 1126 ft 132 kts 235°
2026-04-23 08:13 50.38934 8.95379 1367 ft 126 kts 227°
2026-04-23 08:13 50.38411 8.94325 1578 ft 124 kts 249°
2026-04-23 08:13 50.38170 8.93017 1705 ft 117 kts 260°
2026-04-23 08:14 50.38008 8.91737 1698 ft 128 kts 262°
2026-04-23 08:14 50.37828 8.90323 1677 ft 136 kts 259°
2026-04-23 08:14 50.37696 8.88846 1688 ft 137 kts 265°
2026-04-23 08:14 50.37539 8.87414 1783 ft 135 kts 264°
2026-04-23 08:15 50.37452 8.85930 1857 ft 131 kts 269°
2026-04-23 08:15 50.37288 8.84586 1951 ft 116 kts 251°
2026-04-23 08:15 50.37133 8.83297 1784 ft 125 kts 271°
2026-04-23 08:15 50.37109 8.81873 1538 ft 142 kts 269°
2026-04-23 08:16 50.37067 8.80415 1507 ft 129 kts 270°
2026-04-23 08:16 50.37007 8.79051 1471 ft 118 kts 263°
2026-04-23 08:16 50.36881 8.77792 1437 ft 120 kts 262°
2026-04-23 08:16 50.36918 8.76501 1356 ft 121 kts 284°
2026-04-23 08:17 50.37071 8.75188 1437 ft 119 kts 280°
2026-04-23 08:17 50.37204 8.73967 1503 ft 111 kts 284°
2026-04-23 08:17 50.37306 8.72782 1498 ft 115 kts 277°
2026-04-23 08:17 50.37535 8.71564 1482 ft 114 kts 293°
2026-04-23 08:18 50.37879 8.70472 1623 ft 111 kts 297°
2026-04-23 08:18 50.38232 8.69377 1805 ft 114 kts 299°
2026-04-23 08:18 50.38113 8.68189 1875 ft 129 kts 231°
2026-04-23 08:18 50.37488 8.67289 1916 ft 114 kts 228°
2026-04-23 08:19 50.36942 8.66347 1871 ft 113 kts 229°
2026-04-23 08:19 50.36481 8.65459 2093 ft 101 kts 238°
2026-04-23 08:19 50.35983 8.64659 2170 ft 113 kts 203°
2026-04-23 08:19 50.35208 8.65070 1948 ft 112 kts 127°
2026-04-23 08:20 50.34742 8.65886 1749 ft 99 kts 129°
2026-04-23 08:20 50.34299 8.66652 1576 ft 94 kts 123°
2026-04-23 08:20 50.34374 8.67586 1368 ft 91 kts 63°
2026-04-23 08:20 50.34710 8.68370 1265 ft 85 kts 53°
2026-04-23 08:21 50.35075 8.69100 1161 ft 85 kts 50°
2026-04-23 08:21 50.35452 8.69823 1030 ft 87 kts 48°
2026-04-23 08:21 50.35849 8.70519 854 ft 78 kts 47°
2026-04-23 08:21 50.36131 8.71005 810 ft 44 kts 46°
2026-04-23 08:22 50.36289 8.71287 823 ft 26 kts 52°
2026-04-23 08:22 50.36339 8.71439 831 ft 10 kts 62°
2026-04-23 08:22 50.36357 8.71479 831 ft 0 kts 32°